Overview Statistics Trail Chart Weather Telemetry Raw packets
 

This is the latest recevied weather packets stored in our database for station/object KA1JKB. If no packets are shown the sender has not sent any weather packets the latest 10 day(s).

<< 12 13 14 15 16 17 18 >>
Time Temp. Humidity Pressure Rain* Wind** Luminosity Snow
1788365454 31.67° C 72% 1013.4 hPa 0 mm - 738 W/m² -
1788365149 31.67° C 74% 1013.5 hPa 0 mm - 698 W/m² -
1788364845 31.67° C 73% 1013.4 hPa 0 mm - 685 W/m² -
1788364538 31.11° C 72% 1013.4 hPa 0 mm - 689 W/m² -
1788364237 31.11° C 76% 1013.4 hPa 0 mm - 723 W/m² -
1788363932 30.56° C 77% 1013.4 hPa 0 mm - 517 W/m² -
1788363627 30° C 78% 1013.5 hPa 0 mm - 733 W/m² -
1788363325 30° C 77% 1013.6 hPa 0 mm - 257 W/m² -
1788363021 30.56° C 76% 1013.6 hPa 0 mm - 221 W/m² -
1788362718 31.11° C 77% 1013.6 hPa 0 mm - 730 W/m² -
1788362413 30.56° C 76% 1013.6 hPa 0 mm - 628 W/m² -
1788362108 30.56° C 75% 1013.5 hPa 0 mm - 665 W/m² -
1788361807 30° C 77% 1013.6 hPa 0 mm - 643 W/m² -
1788361503 30.56° C 77% 1013.5 hPa 0 mm - 584 W/m² -
1788361198 30.56° C 79% 1013.4 hPa 0 mm - 601 W/m² -
1788360893 30° C 78% 1013.4 hPa 0 mm - 626 W/m² -
1788360593 30° C 79% 1013.4 hPa 0 mm - 592 W/m² -
1788360290 30° C 79% 1013.4 hPa 0 mm - 573 W/m² -
1788359990 30° C 79% 1013.3 hPa 0 mm - 538 W/m² -
1788359685 29.44° C 81% 1013.4 hPa 0 mm - 531 W/m² -
1788359380 29.44° C 79% 1013.3 hPa 0 mm - 540 W/m² -
1788359076 28.89° C 81% 1013.3 hPa 0 mm - 174 W/m² -
1788358772 28.89° C 79% 1013.1 hPa 0 mm - 498 W/m² -
1788358466 28.33° C 81% 1013.1 hPa 0 mm - 482 W/m² -
1788358166 28.33° C 82% 1013.2 hPa 0 mm - 475 W/m² -

* Rain latest hour (hover to see other rain measurements)
** Current wind speed in m/s (hover to see current wind gust speed)